Hibbing, MN

5:32 PM CDT on August 25, 2016 (GMT -0500)
Chisholm-hibbing

Weather History for KHIB - June, 2013

Change the Weather History Date:

Friday, June 28, 2013

  Actual Average Record
Temperature  
Mean Temperature 68 °F -  
Max Temperature 75 °F 72 °F 88 °F (1964)
Min Temperature 62 °F 50 °F 38 °F (1983)
Cooling Degree Days 2    
Growing Degree Days 18 (Base 50)    
Moisture  
Dew Point 61 °F    
Average Humidity 84    
Maximum Humidity 94    
Minimum Humidity 68    
Precipitation  
Precipitation 0.51 in - - ()
Sea Level Pressure  
Sea Level Pressure 29.77 in    
Wind  
Wind Speed 11 mph (NNW)    
Max Wind Speed 18 mph    
Max Gust Speed 23 mph    
Visibility 8 miles    
Events Rain , Thunderstorm    
Averages and records for this station are not official NWS values.
T = Trace of Precipitation, MM = Missing Value Source: NWS Daily Summary

Daily Weather History Graph

Daily Weather History Graph

Search for Another Location

Airport or City:

Trip Planner

Search our weather history database for the weather conditions in past years. The results will help you decide how hot, cold, wet, or windy it might be!

Date:

Astronomy

Jun. 28, 2013 Rise Set
Actual Time 5:17 AM CDT 9:12 PM CDT
Civil Twilight 4:36 AM CDT 9:52 PM CDT
Nautical Twilight 3:41 AM CDT 10:47 PM CDT
Astronomical Twilight 2:16 AM CDT 12:12 AM CDT
Moon No Moon Rise 11:52 AM CDT (6/28)
Length of Visible Light 17h 15m
Length of Day
15h 54m
Waning Gibbous, 66% of the Moon is Illuminated
Jun 28
Waning Gibbous
Jun 29
Last Quarter
Jul 8
New
Jul 15
First Quarter
Jul 22
Full

Hourly Weather History & Observations

Time (CDT) Temp. Dew Point Humidity Pressure Visibility Wind Dir Wind Speed Gust Speed Precip Events Conditions
12:53 AM 66.0 °F 57.0 °F 73% 29.72 in 10.0 mi NW 15.0 mph 21.9 mph N/A   Overcast
1:53 AM 64.0 °F 57.9 °F 80% 29.71 in 10.0 mi NW 13.8 mph 20.7 mph N/A   Mostly Cloudy
2:53 AM 63.0 °F 59.0 °F 87% 29.72 in 10.0 mi WNW 12.7 mph - N/A   Overcast
3:03 AM 62.6 °F 59.0 °F 88% 29.72 in 9.0 mi NW 11.5 mph - N/A   Overcast
3:18 AM 62.6 °F 60.8 °F 94% 29.72 in 5.0 mi NW 11.5 mph - 0.00 in Rain Light Rain
3:45 AM 62.6 °F 60.8 °F 94% 29.72 in 6.0 mi WNW 6.9 mph - 0.01 in Rain Light Rain
3:53 AM 63.0 °F 60.1 °F 90% 29.71 in 9.0 mi NW 8.1 mph - 0.01 in   Overcast
4:02 AM 62.6 °F 60.8 °F 94% 29.72 in 7.0 mi NW 10.4 mph - 0.00 in Rain Light Rain
4:39 AM 62.6 °F 60.8 °F 94% 29.72 in 4.0 mi NW 5.8 mph - 0.01 in Rain Light Rain
4:53 AM 63.0 °F 60.1 °F 90% 29.71 in 7.0 mi NW 8.1 mph - 0.01 in Rain Light Rain
5:40 AM 62.6 °F 60.8 °F 94% 29.73 in 10.0 mi NW 6.9 mph - 0.02 in   Overcast
5:53 AM 63.0 °F 59.0 °F 87% 29.72 in 10.0 mi NW 10.4 mph - 0.02 in   Overcast
6:53 AM 63.0 °F 60.1 °F 90% 29.73 in 6.0 mi NW 9.2 mph - 0.00 in Rain Light Rain
7:53 AM 64.0 °F 61.0 °F 90% 29.73 in 4.0 mi NW 10.4 mph - 0.00 in Rain Light Rain
8:06 AM 64.4 °F 60.8 °F 88% 29.74 in 7.0 mi NNW 12.7 mph - 0.01 in Rain Light Rain
8:31 AM 66.2 °F 60.8 °F 83% 29.75 in 10.0 mi NNW 13.8 mph - 0.01 in   Overcast
8:53 AM 68.0 °F 61.0 °F 78% 29.74 in 10.0 mi NNW 15.0 mph 21.9 mph 0.01 in   Scattered Clouds
9:48 AM 68.0 °F 59.0 °F 73% 29.76 in 10.0 mi NNW 16.1 mph - N/A   Overcast
9:53 AM 68.0 °F 59.0 °F 73% 29.75 in 10.0 mi NNW 12.7 mph - N/A   Overcast
10:31 AM 66.2 °F 59.0 °F 78% 29.77 in 10.0 mi NNW 13.8 mph - 0.00 in Rain Light Rain
10:53 AM 66.0 °F 60.1 °F 81% 29.77 in 5.0 mi NNW 13.8 mph - 0.01 in Rain Light Rain
10:57 AM 64.4 °F 60.8 °F 88% 29.77 in 4.0 mi NW 15.0 mph - 0.00 in Rain Light Rain
11:04 AM 66.2 °F 62.6 °F 88% 29.77 in 10.0 mi NNW 13.8 mph - 0.00 in Rain Light Rain
11:53 AM 66.9 °F 61.0 °F 81% 29.78 in 3.0 mi North 10.4 mph 20.7 mph 0.01 in Rain Light Rain
11:56 AM 66.2 °F 60.8 °F 83% 29.78 in 2.0 mi North 9.2 mph - 0.01 in Rain Heavy Rain
12:04 PM 66.2 °F 62.6 °F 88% 29.78 in 4.0 mi North 9.2 mph - 0.01 in Rain Light Rain
12:15 PM 68.0 °F 62.6 °F 83% 29.78 in 10.0 mi NNW 11.5 mph - 0.01 in   Overcast
12:22 PM 68.0 °F 60.8 °F 78% 29.78 in 10.0 mi North 13.8 mph 19.6 mph 0.01 in   Overcast
12:53 PM 70.0 °F 60.1 °F 71% 29.77 in 10.0 mi North 18.4 mph - 0.01 in   Mostly Cloudy
1:53 PM 70.0 °F 61.0 °F 73% 29.78 in 7.0 mi North 12.7 mph 21.9 mph 0.00 in Rain Light Rain
2:53 PM 72.0 °F 64.0 °F 76% 29.77 in 10.0 mi NW 9.2 mph - 0.01 in   Partly Cloudy
3:31 PM 69.8 °F 62.6 °F 78% 29.78 in 10.0 mi North 15.0 mph 23.0 mph 0.00 in Rain Light Rain
3:40 PM 69.8 °F 60.8 °F 73% 29.78 in 10.0 mi NNW 13.8 mph - 0.00 in   Mostly Cloudy
3:53 PM 71.1 °F 62.1 °F 73% 29.77 in 10.0 mi NW 10.4 mph - 0.00 in   Mostly Cloudy
4:53 PM 73.9 °F 63.0 °F 68% 29.78 in 10.0 mi NNW 12.7 mph 19.6 mph N/A   Mostly Cloudy
5:48 PM 69.8 °F 62.6 °F 78% 29.80 in 10.0 mi NNW 17.3 mph - 0.00 in Thunderstorm Mostly Cloudy
5:53 PM 70.0 °F 62.1 °F 76% 29.79 in 10.0 mi NNW 12.7 mph - 0.00 in Thunderstorm Overcast
6:03 PM 69.8 °F 62.6 °F 78% 29.80 in 10.0 mi North 10.4 mph 19.6 mph N/A   Overcast
6:16 PM 68.0 °F 62.6 °F 83% 29.81 in 8.0 mi North 12.7 mph - 0.01 in Rain Light Rain
6:24 PM 66.2 °F 62.6 °F 88% 29.81 in 2.5 mi North 11.5 mph - 0.05 in Rain Heavy Rain
6:36 PM 64.4 °F 62.6 °F 94% 29.80 in 1.5 mi NNW 10.4 mph - 0.19 in Rain Heavy Rain
6:43 PM 66.2 °F 62.6 °F 88% 29.81 in 3.0 mi NNW 9.2 mph - 0.20 in Rain Rain
6:53 PM 66.0 °F 63.0 °F 90% 29.81 in 7.0 mi NNW 9.2 mph - 0.21 in Rain Light Rain
7:53 PM 64.9 °F 62.1 °F 90% 29.82 in 10.0 mi NNW 9.2 mph - 0.06 in Rain Light Rain
8:30 PM 66.2 °F 62.6 °F 88% 29.82 in 10.0 mi North 5.8 mph - 0.00 in   Overcast
8:53 PM 66.0 °F 63.0 °F 90% 29.82 in 8.0 mi North 6.9 mph - 0.04 in Rain Light Rain
8:57 PM 64.4 °F 62.6 °F 94% 29.82 in 3.0 mi Variable 6.9 mph - 0.05 in Rain Heavy Rain
9:00 PM 64.4 °F 62.6 °F 94% 29.82 in 2.5 mi NNE 9.2 mph - 0.06 in Rain Heavy Rain
9:07 PM 64.4 °F 60.8 °F 88% 29.82 in 4.0 mi NNE 8.1 mph - 0.08 in Rain Rain
9:53 PM 64.9 °F 61.0 °F 87% 29.83 in 10.0 mi North 4.6 mph - 0.08 in   Overcast
10:13 PM 64.4 °F 60.8 °F 88% 29.83 in 10.0 mi North 8.1 mph - N/A   Overcast
10:53 PM 64.9 °F 61.0 °F 87% 29.83 in 5.0 mi NE 5.8 mph - 0.02 in Rain Rain
11:38 PM 64.4 °F 60.8 °F 88% 29.84 in 10.0 mi ENE 4.6 mph - 0.01 in   Overcast
11:53 PM 64.0 °F 61.0 °F 90% 29.84 in 10.0 mi Calm Calm - 0.01 in   Overcast